Temp
16 17 17 17 17 17 17 17 17 16 16 16 16 16 16 16 16 16 16 16 16 16 16 16 16 16 16 16 17 18 18 18 18 18 18 17 17 18 18 18 18 17 17 17 17 17 17 17 17 17 17 17 16 16 16 16 16 16 16 16 16 16 16 16 16 15 15 15 15 15 15 15 15 15 15 15 15 15 15 14 14 14 14 14 13 13
15 15 16 16 17 17 16 16 16 16 16 16 16 16 16 15 15 15 15 16 16 15 15 15 15 15 15 16 16 17 17 17 17 17 17 17 17 18 18 18 18 18 18 17 17 17 17 17 17 17 17 16 16 16 16 16 16 16 16 16 16 16 16 16 16 15 15 15 15 15 15 15 15 15 15 15 15 15 15 15 14 14 14 14 13 13
13 14 15 15 16 16 16 16 16 16 16 16 16 16 16 15 15 15 15 15 15 15 15 15 15 15 15 15 16 16 16 17 17 17 17 17 18 18 18 18 18 18 18 18 17 17 17 17 17 17 16 16 16 16 16 16 16 16 16 16 16 16 16 16 16 16 15 15 15 15 15 15 15 15 15 15 15 15 15 14 14 14 14 14 14 13
11 12 13 14 14 15 15 15 15 15 15 16 16 16 15 15 15 15 15 15 15 15 15 15 15 15 15 15 15 16 16 16 17 17 17 17 18 18 18 18 18 18 18 18 17 17 17 17 17 16 16 16 16 16 16 17 17 17 16 16 16 16 16 16 16 16 15 15 15 15 15 15 15 15 15 15 15 15 14 14 14 14 14 14 14 13
8 9 10 11 12 13 14 14 14 14 14 14 15 15 15 15 15 15 15 15 15 15 15 15 15 15 15 15 15 15 16 16 16 17 17 17 18 18 18 18 18 18 18 18 18 17 17 17 17 16 16 16 16 16 17 17 17 17 17 17 16 16 16 16 15 15 15 15 15 15 15 15 15 15 15 15 15 14 14 14 14 14 14 14 14 13
6 6 7 8 10 11 12 13 13 13 13 13 14 14 14 14 14 14 15 15 15 14 14 14 15 15 15 15 15 15 16 16 16 17 17 17 18 18 18 18 18 18 18 18 18 17 17 17 16 16 16 16 16 17 17 17 18 18 17 17 17 16 16 16 16 15 15 15 15 15 15 15 15 15 15 15 15 14 14 14 14 14 14 14 14 14
5 5 6 6 7 8 10 11 12 13 12 12 12 13 13 13 13 14 14 14 14 14 14 14 14 14 15 15 15 15 15 16 16 17 17 17 18 18 18 18 18 18 18 18 18 17 17 17 16 16 16 16 16 17 17 17 17 18 18 17 17 17 17 16 16 16 16 16 15 15 15 15 15 15 15 15 15 14 14 14 14 14 14 14 14 14
5 5 5 5 6 7 8 9 10 11 12 12 12 12 12 12 13 13 13 13 13 13 13 13 14 14 14 14 15 15 15 16 16 16 17 17 18 18 18 18 18 18 18 18 18 18 17 17 17 16 16 16 16 17 17 17 17 17 17 17 17 17 17 17 17 16 16 16 16 16 16 15 15 15 15 15 15 15 14 14 14 13 13 13 13 13
4 5 5 5 5 6 7 7 7 8 9 10 11 12 12 12 12 12 12 12 13 13 13 13 13 14 14 14 15 15 15 15 16 16 16 17 17 17 17 18 18 18 18 18 18 18 17 17 17 17 17 16 16 16 16 16 16 17 17 17 17 17 17 17 17 17 17 17 17 16 16 16 15 15 14 14 14 15 14 14 14 13 13 13 13 13
4 4 4 5 5 6 6 6 6 6 7 8 10 11 12 12 12 12 12 12 12 12 12 13 13 13 14 14 15 15 15 15 15 16 16 16 17 17 17 17 17 17 18 18 18 18 18 17 17 17 17 16 16 16 16 16 16 16 16 16 17 17 17 17 16 16 17 17 17 17 17 16 16 15 14 14 14 14 15 14 14 13 13 13 13 13
4 4 4 4 5 5 6 6 6 6 6 7 8 10 11 11 11 11 12 12 12 12 12 12 12 13 13 14 14 15 14 15 15 15 16 16 16 16 16 17 17 17 17 17 18 18 18 17 17 17 17 16 16 16 16 15 15 16 16 16 16 16 16 16 16 16 16 16 16 17 17 16 16 15 15 14 14 14 14 14 14 14 13 13 13 13
4 4 4 4 4 5 5 5 6 6 6 5 6 6 7 6 6 7 8 9 10 11 12 12 12 12 13 13 14 14 14 14 14 14 15 15 15 15 15 16 16 16 16 16 17 17 17 17 17 17 17 16 16 16 16 15 15 15 15 16 16 15 15 15 15 15 15 16 16 16 16 16 16 16 15 14 14 13 14 14 14 14 14 13 13 13
3 3 4 4 4 4 5 5 6 6 5 4 4 4 4 4 4 4 5 6 7 8 8 10 11 12 12 13 13 13 14 14 14 14 14 14 14 14 14 14 14 15 15 15 15 16 16 16 16 16 16 16 16 16 16 15 15 15 15 15 15 15 14 14 14 14 15 15 15 16 16 16 16 16 15 15 14 14 13 13 14 14 14 13 13 13
3 3 3 4 4 4 5 5 6 5 4 3 3 3 4 4 4 4 5 5 5 5 6 7 8 10 11 12 13 13 13 13 13 13 13 13 13 14 14 14 14 14 14 14 14 15 15 15 15 15 15 15 15 15 15 15 15 15 15 15 15 14 14 14 14 14 14 14 15 15 16 16 16 16 16 15 15 14 14 13 13 14 14 13 13 13
2 3 3 3 4 4 4 5 4 4 3 2 2 3 3 3 4 4 4 5 5 5 5 6 7 8 10 12 12 12 12 13 13 13 13 13 13 13 13 13 13 13 14 14 14 14 14 14 14 14 14 15 15 15 15 15 15 15 15 15 15 14 14 14 14 14 13 14 14 15 15 16 16 16 16 15 15 14 14 13 13 13 13 13 13 13
1 2 2 2 3 3 3 3 3 2 2 2 2 2 2 3 3 3 4 4 4 5 5 5 6 7 9 10 10 9 9 9 9 11 12 12 12 13 13 13 13 13 13 13 13 13 14 14 14 14 14 14 14 14 15 15 15 15 15 15 15 14 14 14 14 14 14 14 14 14 15 15 16 15 15 15 14 14 13 13 13 13 13 13 14 14
1 1 1 1 1 1 1 1 1 1 1 1 1 1 2 2 3 3 3 3 4 4 4 5 5 6 7 8 8 7 6 5 5 6 8 10 11 12 12 12 12 12 12 13 13 13 13 13 13 13 14 14 14 14 15 15 15 15 15 15 14 14 14 14 14 13 14 14 14 14 14 15 15 15 15 14 14 13 13 12 12 12 13 13 13 14
1 1 1 1 1 0 -0 -0 0 0 0 0 0 1 1 1 2 2 3 3 3 4 4 4 5 5 6 7 7 6 5 5 5 6 7 8 9 10 12 12 12 12 12 12 12 13 13 13 13 13 14 14 14 15 15 15 15 15 15 14 14 14 14 14 13 13 13 13 13 13 14 15 15 14 14 14 14 13 13 12 12 12 12 13 13 13
-0 -0 0 -0 -0 -0 -1 -0 -0 -0 -0 -0 -0 0 0 1 1 2 2 2 3 3 3 4 4 5 5 5 5 5 5 4 5 6 7 7 8 9 10 12 12 12 12 12 12 12 13 13 13 14 14 14 14 15 15 15 15 15 15 14 14 14 14 13 13 13 13 13 13 13 14 14 14 14 14 14 13 13 13 12 12 12 12 12 13 13
-1 -1 -1 -1 -1 -1 -1 -1 -0 -0 -1 -1 -0 -0 -0 0 1 1 2 2 2 2 3 3 3 4 4 4 4 4 4 4 5 6 7 7 8 9 9 11 11 12 12 12 12 12 13 13 13 13 14 14 14 14 15 15 14 14 14 14 14 14 14 13 13 13 13 13 13 13 13 13 13 13 13 13 13 13 13 12 12 12 12 12 12 12
-1 -1 -1 -1 -1 -1 -1 -1 -1 -1 -1 -1 -1 -1 -0 -0 0 0 1 1 2 2 2 3 3 3 3 3 3 3 3 4 5 6 7 8 8 9 9 10 11 11 12 12 12 12 12 12 13 13 13 13 14 14 14 14 14 14 14 14 14 14 14 13 13 13 13 13 13 13 13 13 13 13 13 13 13 13 13 13 12 12 12 12 12 12
-1 -1 -1 -1 -1 -1 -1 -1 -1 -1 -1 -1 -1 -1 -1 -0 -0 0 0 1 1 1 2 2 2 2 2 2 2 3 4 4 5 6 7 8 8 9 9 10 10 10 11 11 12 12 12 12 12 12 12 13 13 13 13 13 13 13 13 13 13 13 13 13 13 13 13 12 13 13 13 13 13 13 13 13 13 13 13 13 13 12 12 12 12 12
-1 -1 -1 -1 -1 -1 -1 -1 -1 -1 -1 -1 -1 -1 -1 -1 -0 -0 0 0 1 1 1 1 1 1 2 2 2 3 4 5 5 6 7 7 8 9 9 9 9 9 10 10 11 11 11 11 12 12 12 12 12 12 12 13 13 13 13 13 13 13 13 13 13 12 12 12 13 13 13 13 13 13 13 13 13 13 13 13 13 12 12 12 12 12
-1 -1 -1 -1 -1 -1 -1 -1 -1 -1 -1 -1 -1 -1 -1 -1 -1 -0 -0 0 0 1 1 1 1 1 2 2 3 3 4 4 5 6 7 7 8 8 8 8 8 8 9 9 10 10 10 11 11 11 11 11 11 11 12 12 12 12 12 12 12 12 12 12 12 12 12 12 12 12 12 12 12 12 12 12 12 12 12 12 12 12 12 12 12 12
-1 -1 -1 -1 -1 -1 -1 -1 -1 -1 -1 -1 -1 -1 -1 -1 -1 -0 -0 0 0 0 1 1 1 2 2 2 3 3 3 4 4 5 6 6 6 7 7 7 7 8 8 9 9 9 10 10 10 10 11 11 11 11 11 11 11 11 11 11 11 11 11 11 11 11 11 11 11 11 11 11 11 11 11 11 11 11 11 12 12 12 12 12 12 11
-1 -1 -1 -1 -1 -1 -1 -1 -1 -1 -1 -1 -1 -1 -1 -1 -1 -1 -0 -0 0 0 1 1 1 2 2 2 2 2 3 3 3 4 4 5 5 5 6 6 7 7 8 8 9 9 9 9 10 10 10 10 10 10 10 10 10 11 11 11 11 11 11 11 11 11 11 11 10 10 10 10 10 10 10 10 10 11 11 11 11 11 11 11 11 11
-2 -2 -2 -2 -2 -2 -2 -2 -2 -2 -2 -1 -1 -1 -1 -1 -1 -1 -0 -0 -0 0 1 1 1 2 2 2 2 2 2 2 3 3 3 4 5 5 6 6 7 7 8 8 8 9 9 9 9 10 10 10 10 10 10 10 10 10 10 10 10 10 10 10 10 10 10 10 10 10 9 9 9 9 10 10 10 10 10 10 10 11 11 11 11 11
-2 -2 -2 -2 -2 -2 -2 -2 -2 -2 -2 -2 -1 -1 -1 -1 -1 -1 -1 -1 -0 -0 0 1 1 1 2 2 2 2 2 2 2 3 3 4 5 5 6 7 7 7 7 8 8 8 9 9 9 10 10 10 10 10 10 10 10 10 10 10 10 9 9 9 9 9 9 9 9 9 9 9 9 9 9 9 9 10 10 10 10 10 10 11 11 11
-3 -3 -3 -3 -3 -3 -2 -2 -2 -2 -2 -2 -2 -2 -2 -2 -1 -1 -1 -1 -1 -0 -0 0 1 1 1 2 2 2 2 2 2 3 4 5 5 6 6 6 6 7 7 7 8 8 8 9 9 9 10 10 10 10 10 10 10 10 9 9 9 9 9 9 9 9 9 9 9 9 9 9 9 9 9 9 9 9 9 9 10 10 10 10 10 10
-3 -3 -3 -3 -3 -3 -3 -3 -3 -2 -2 -2 -2 -2 -2 -2 -2 -2 -1 -1 -1 -1 -0 -0 0 1 1 1 2 2 2 2 3 3 4 5 5 6 5 5 5 6 6 7 7 8 8 8 8 9 9 10 10 10 10 10 9 9 9 9 9 9 9 9 8 8 9 9 9 9 9 9 9 9 9 9 9 9 9 9 9 10 10 10 10 10
-3 -3 -3 -3 -3 -3 -3 -3 -3 -3 -2 -2 -2 -2 -2 -2 -2 -2 -2 -2 -1 -1 -1 -0 -0 0 0 1 1 2 2 2 3 3 2 3 4 4 4 5 5 5 6 6 6 7 7 7 8 8 9 9 9 9 9 9 9 9 9 9 9 9 9 8 8 8 8 9 9 9 8 8 8 8 9 9 9 9 9 9 9 9 10 10 10 10
-3 -3 -3 -3 -3 -3 -3 -3 -3 -3 -3 -3 -3 -3 -3 -3 -3 -3 -3 -2 -2 -2 -2 -1 -1 -0 -0 0 1 1 2 2 2 1 1 1 2 3 4 4 5 5 6 6 6 6 6 6 7 8 8 9 9 9 9 9 9 9 9 9 9 9 9 8 8 8 8 9 9 9 9 9 8 8 8 9 9 9 9 9 9 9 10 10 10 10
-3 -3 -3 -3 -3 -3 -3 -3 -3 -3 -3 -3 -3 -3 -3 -3 -3 -3 -3 -3 -3 -3 -2 -2 -2 -1 -1 -1 -0 0 0 1 0 0 -0 -0 0 1 2 3 4 4 5 6 6 6 6 6 6 8 8 8 8 8 8 8 8 8 8 9 9 9 9 9 8 8 9 9 9 9 9 9 9 9 9 9 9 9 9 9 9 9 9 9 9 10
-3 -3 -3 -3 -3 -3 -3 -3 -3 -3 -3 -3 -3 -3 -3 -3 -3 -3 -3 -3 -3 -3 -3 -3 -2 -2 -2 -1 -1 -1 -1 -1 -1 -1 -1 -1 -1 -0 0 1 2 3 4 5 6 6 6 6 6 7 7 7 8 8 8 8 8 8 8 8 8 9 9 9 9 8 9 9 9 9 9 9 9 9 9 9 9 9 9 9 9 9 9 10 9 9
-3 -3 -3 -3 -3 -3 -3 -3 -3 -3 -3 -3 -3 -3 -3 -3 -3 -3 -3 -3 -3 -3 -3 -3 -3 -2 -2 -2 -2 -1 -1 -1 -1 -1 -0 -1 -1 -1 -0 0 1 2 3 5 5 5 5 6 6 6 7 7 7 7 7 8 8 8 8 8 8 8 9 9 9 8 8 8 9 9 9 9 9 9 9 9 9 9 9 9 9 9 9 10 10 10
-3 -3 -3 -3 -3 -3 -3 -3 -3 -3 -3 -3 -3 -3 -3 -3 -3 -3 -3 -3 -3 -3 -3 -3 -3 -3 -3 -2 -2 -2 -2 -2 -1 -1 -0 -0 -1 -1 -0 0 1 1 2 4 5 5 5 6 6 6 6 6 7 7 7 7 8 8 8 8 8 8 8 8 8 8 8 8 8 9 9 9 9 9 9 9 10 9 9 9 9 9 9 9 10 10
-4 -3 -3 -3 -3 -3 -3 -3 -3 -3 -3 -3 -3 -3 -3 -3 -3 -3 -3 -3 -3 -3 -3 -3 -3 -3 -3 -3 -3 -2 -2 -2 -1 -1 -0 -0 -0 -0 -0 0 0 1 2 2 4 5 5 6 6 6 6 6 6 7 7 7 7 7 8 8 8 8 8 8 8 8 8 8 8 8 9 9 9 9 9 10 10 10 9 9 9 9 9 9 9 10
-4 -4 -4 -4 -4 -4 -4 -4 -4 -4 -4 -4 -4 -4 -4 -3 -3 -3 -3 -3 -3 -3 -3 -3 -3 -3 -3 -3 -3 -3 -2 -2 -1 -1 -0 -0 -0 -0 -0 0 0 1 1 2 3 4 5 6 6 6 6 6 7 7 7 7 7 7 7 8 8 8 8 8 8 8 8 8 8 8 8 9 9 9 9 9 9 9 9 9 9 9 9 9 9 9
-4 -4 -4 -4 -4 -4 -4 -4 -4 -4 -4 -4 -4 -4 -4 -4 -3 -3 -3 -3 -3 -3 -3 -3 -3 -3 -3 -3 -3 -3 -2 -2 -1 -1 -0 0 0 0 0 0 1 1 2 2 3 3 4 5 6 6 6 6 6 7 7 7 7 7 7 7 7 8 8 8 8 8 8 8 8 8 8 9 9 9 9 9 9 9 9 9 9 9 9 9 9 9
-5 -5 -5 -5 -5 -5 -5 -5 -5 -5 -5 -5 -5 -4 -4 -4 -4 -4 -4 -3 -3 -3 -3 -3 -3 -3 -3 -3 -3 -3 -2 -2 -1 -1 -0 0 0 0 0 1 1 1 2 2 3 3 4 4 5 6 6 6 7 7 7 7 7 7 7 7 7 7 8 8 8 8 8 8 8 8 8 8 8 9 9 9 9 9 9 8 8 9 9 9 9 9
-5 -5 -5 -5 -5 -6 -6 -6 -6 -6 -5 -5 -5 -5 -4 -4 -4 -4 -4 -4 -4 -4 -3 -3 -3 -3 -3 -3 -3 -2 -2 -2 -1 -1 -0 -0 0 0 0 1 1 1 2 2 3 3 4 4 5 5 6 6 6 7 7 7 7 7 7 7 7 7 8 8 8 8 8 8 8 8 8 8 8 8 9 9 9 9 9 9 8 8 8 8 8 8
-6 -6 -6 -6 -6 -6 -6 -6 -6 -6 -6 -5 -5 -5 -5 -5 -5 -5 -4 -4 -4 -4 -4 -3 -3 -3 -3 -3 -3 -2 -2 -2 -2 -1 -1 -0 -0 0 0 1 1 1 1 2 3 3 3 4 4 5 5 6 6 6 6 7 7 7 7 7 7 7 7 8 8 8 8 8 8 8 8 8 8 8 8 8 8 9 9 9 8 8 8 8 8 8
-6 -6 -6 -6 -6 -6 -6 -6 -6 -6 -6 -6 -6 -5 -5 -5 -5 -5 -5 -5 -4 -4 -4 -4 -3 -3 -3 -3 -3 -2 -2 -2 -2 -2 -1 -1 -0 -0 0 0 0 1 1 2 2 3 3 4 4 5 5 5 6 6 6 6 6 6 6 7 7 7 7 7 7 8 8 8 8 8 8 8 8 8 8 8 8 8 8 8 8 8 8 8 8 8
-6 -7 -7 -7 -7 -7 -7 -6 -6 -6 -6 -6 -6 -6 -6 -6 -5 -5 -5 -5 -5 -4 -4 -4 -4 -3 -3 -3 -3 -3 -3 -2 -2 -2 -1 -1 -1 -0 -0 0 0 0 1 1 2 2 3 4 4 5 5 5 5 6 6 6 6 6 6 6 6 7 7 7 8 8 8 8 8 8 8 8 8 8 8 8 8 8 8 8 8 8 8 8 8 8
-7 -7 -7 -7 -7 -7 -7 -7 -6 -6 -6 -6 -6 -6 -6 -6 -6 -6 -5 -5 -5 -5 -5 -4 -4 -4 -3 -3 -3 -3 -3 -3 -3 -2 -2 -1 -1 -0 -0 -0 0 0 0 1 1 2 2 3 3 4 4 5 5 5 5 6 6 6 6 6 6 6 7 7 8 7 7 8 8 8 8 8 8 8 8 8 8 8 8 8 8 8 8 8 8 8
-7 -7 -7 -7 -7 -7 -7 -7 -7 -6 -6 -6 -6 -6 -6 -6 -6 -6 -6 -6 -5 -5 -5 -5 -4 -4 -3 -3 -3 -3 -3 -3 -3 -3 -2 -1 -1 -0 -0 -0 -0 -0 0 1 1 1 2 2 3 3 3 4 5 5 5 5 6 6 6 6 6 6 6 7 7 7 7 7 8 8 7 7 7 7 7 7 7 7 7 7 7 7 7 7 7 7
-7 -7 -7 -7 -7 -7 -7 -7 -7 -7 -6 -6 -6 -6 -6 -6 -6 -6 -6 -6 -6 -6 -5 -5 -5 -4 -4 -3 -3 -3 -3 -3 -3 -3 -3 -2 -1 -1 -1 -1 -0 -0 0 0 1 1 2 2 2 2 3 3 4 5 5 5 5 5 6 6 6 6 6 6 6 7 7 7 7 7 7 7 7 7 7 7 7 7 7 7 7 7 7 7 7 7
-7 -7 -7 -7 -7 -7 -7 -7 -7 -7 -7 -6 -6 -6 -6 -6 -6 -6 -6 -6 -6 -6 -5 -5 -5 -5 -4 -4 -3 -3 -3 -3 -3 -2 -2 -2 -2 -1 -1 -1 -0 -0 0 0 1 1 2 2 2 3 3 3 4 4 5 5 5 5 6 6 6 6 6 6 6 6 7 7 7 7 7 7 7 7 7 7 7 7 7 6 7 7 7 7 7 7
-7 -7 -7 -7 -7 -7 -7 -7 -7 -7 -7 -6 -6 -6 -6 -6 -6 -6 -6 -6 -6 -6 -6 -5 -5 -5 -4 -4 -4 -3 -3 -3 -2 -2 -2 -2 -2 -1 -1 -1 -1 -0 -0 0 0 1 2 2 3 3 3 3 3 3 4 4 5 5 5 5 5 6 6 6 6 6 6 6 7 7 7 7 7 7 6 6 6 6 6 6 6 6 6 6 6 6
-7 -7 -7 -7 -7 -7 -7 -7 -7 -7 -7 -7 -6 -6 -6 -6 -6 -6 -6 -6 -6 -6 -6 -5 -5 -5 -5 -4 -4 -4 -3 -3 -2 -2 -2 -2 -2 -1 -1 -1 -1 -1 -0 -0 0 1 1 2 3 3 3 4 3 3 3 4 4 4 5 5 5 5 5 6 6 6 6 6 6 7 7 7 7 6 6 6 6 6 6 6 6 6 6 6 6 6
-7 -7 -7 -7 -7 -7 -7 -7 -7 -7 -7 -7 -6 -6 -6 -6 -6 -6 -6 -6 -6 -6 -6 -6 -5 -5 -5 -5 -4 -4 -4 -3 -3 -2 -2 -2 -2 -2 -2 -2 -1 -1 -1 -0 0 1 1 2 2 3 3 4 4 4 4 3 3 4 4 4 5 5 5 5 6 6 6 6 6 6 6 6 6 6 6 6 6 6 6 5 5 5 6 6 6 6
Height
712 711 712 711 711 710 708 708 709 709 709 709 709 710 710 711 711 711 712 712 713 714 715 716 716 717 717 717 718 719 719 720 722 723 724 725 726 727 727 728 730 731 733 734 736 737 739 740 742 743 745 746 747 749 750 751 752 754 755 756 757 758 759 760 761 762 763 764 765 766 767 768 770 771 772 773 774 775 777 778 779 780 782 783 784 785
712 711 710 710 709 708 706 706 707 707 706 706 707 707 708 708 709 709 710 710 711 712 712 713 714 714 714 714 715 715 716 717 718 720 721 722 722 723 724 725 726 728 730 731 733 734 736 737 738 740 742 743 745 746 747 748 750 751 752 753 754 755 756 757 758 759 760 761 762 763 764 765 766 768 770 771 771 772 774 775 776 778 779 780 781 783
713 711 710 709 708 707 705 705 705 705 705 704 705 705 705 706 706 706 707 708 708 709 710 710 711 711 711 712 712 712 713 714 715 717 718 718 719 719 720 722 723 725 727 728 730 731 733 734 736 737 739 740 742 743 744 745 747 748 749 750 751 752 753 754 755 756 757 758 759 760 761 762 763 765 767 767 768 769 770 772 773 775 776 777 779 780
715 713 710 709 707 706 704 704 703 703 703 703 703 703 703 703 703 704 704 705 706 707 707 708 708 709 709 709 709 710 710 712 713 714 715 715 715 716 717 718 720 722 724 725 727 728 730 731 733 735 736 738 739 741 742 743 744 745 746 747 749 750 751 752 753 754 755 755 756 757 758 759 761 762 763 765 765 766 767 769 771 772 773 775 776 777
717 715 713 711 708 705 703 703 702 702 702 702 702 702 701 701 701 702 702 703 704 705 705 706 706 706 706 706 707 707 708 709 710 711 712 712 712 713 714 715 717 719 720 722 724 725 727 729 730 732 733 735 737 738 739 740 741 742 743 744 746 747 748 749 750 751 752 753 754 755 756 757 758 759 760 761 762 764 766 768 769 770 770 771 772 774
720 718 716 713 710 707 704 703 702 701 700 700 699 699 699 699 699 700 701 701 702 703 703 704 704 704 704 704 704 705 705 706 707 708 709 709 710 710 711 712 714 715 717 719 720 722 724 725 727 729 730 732 734 735 737 738 739 740 740 742 743 744 745 746 747 749 750 751 751 752 753 754 755 756 757 759 760 762 763 765 766 766 767 768 769 770
720 718 717 714 711 708 705 704 702 701 700 698 697 697 697 697 698 698 698 699 700 700 701 701 702 702 702 702 702 703 704 705 705 706 706 706 707 708 709 710 711 713 714 716 717 719 720 722 724 725 727 729 730 732 734 735 736 737 738 739 740 741 742 743 745 746 747 748 749 750 751 752 752 753 754 756 758 759 760 761 762 763 764 765 766 767
720 718 717 715 712 710 707 705 704 702 701 699 697 696 695 695 696 696 696 697 698 698 699 699 700 700 700 700 700 701 702 703 703 703 704 704 705 705 706 707 709 710 711 713 714 716 717 719 720 722 724 725 727 729 730 732 733 735 736 737 738 739 740 741 742 743 744 745 746 747 748 749 750 750 751 753 755 756 757 758 759 760 762 763 763 764
722 719 717 716 715 712 709 706 704 703 701 700 697 695 694 694 694 695 695 695 696 696 697 697 697 697 697 697 698 699 699 700 700 701 701 702 702 703 704 705 706 707 709 710 712 713 715 716 717 719 720 722 724 726 727 729 730 732 733 734 735 736 737 738 739 740 742 743 744 745 746 747 747 748 749 750 751 753 754 755 756 758 760 761 762 762
723 721 719 717 716 715 712 709 706 704 702 699 697 695 695 694 694 694 695 694 694 694 695 695 694 694 694 694 695 696 696 697 697 698 699 699 700 700 701 702 704 705 706 707 708 710 711 713 714 716 717 719 721 722 724 726 728 729 730 731 732 733 734 735 736 737 739 740 741 742 743 744 745 745 746 747 748 750 751 752 754 756 757 758 760 761
722 721 720 718 716 715 714 712 709 706 704 700 697 695 695 696 697 697 695 694 693 693 693 693 692 692 692 692 692 693 694 694 695 695 696 697 697 698 699 700 701 702 703 704 705 706 707 709 710 712 714 715 717 719 720 723 725 726 727 728 729 730 730 732 733 734 735 737 738 739 740 741 742 742 743 745 746 747 748 750 751 753 754 756 757 758
723 721 720 718 717 715 714 712 710 708 706 703 700 698 697 699 700 701 699 696 695 694 693 692 691 690 690 689 690 691 692 692 693 693 693 694 695 696 696 697 698 699 700 700 701 702 703 705 706 708 709 711 712 714 716 718 720 722 723 724 725 726 727 728 729 731 732 734 735 736 737 738 739 740 740 741 743 744 745 747 748 750 751 753 754 755
723 722 721 719 718 716 715 713 711 709 708 707 706 704 703 702 702 702 701 699 697 696 695 692 690 689 688 688 688 690 691 691 691 691 691 691 691 692 693 693 694 695 696 697 697 698 699 701 702 703 705 706 707 709 711 713 715 717 719 720 721 722 723 724 726 727 729 730 732 733 734 735 735 736 737 738 739 741 742 744 745 747 748 749 751 752
723 722 721 719 718 717 716 714 713 712 712 711 711 710 708 706 704 702 701 699 698 697 696 693 691 688 687 687 687 689 690 690 689 689 689 688 688 688 689 690 690 690 692 693 693 693 695 696 698 699 700 701 703 704 706 708 710 712 714 715 716 718 719 721 722 724 725 727 728 729 730 731 732 733 734 735 736 737 739 740 742 743 745 746 747 749
724 723 721 720 719 718 717 716 716 715 715 714 713 712 710 707 705 703 702 700 698 697 696 694 691 688 687 687 688 689 690 690 689 687 686 685 684 685 686 686 686 687 688 689 689 689 691 692 693 694 695 697 698 700 702 704 706 708 709 711 712 714 715 717 718 720 721 723 724 725 726 727 728 729 730 731 733 734 735 737 738 740 741 742 744 746
725 724 723 721 720 719 719 718 718 718 717 716 715 713 711 709 707 705 703 702 700 698 697 695 692 690 688 688 689 689 688 689 689 687 685 683 682 682 683 683 684 684 684 685 685 686 687 689 690 690 692 693 694 696 698 700 702 703 705 707 708 710 711 713 714 715 717 718 720 721 722 723 724 725 726 728 730 731 732 734 735 737 738 739 741 742
727 725 724 723 722 721 721 720 720 720 719 717 716 714 713 711 709 707 705 703 701 700 699 698 697 695 691 689 687 687 687 688 689 687 685 682 680 680 680 680 680 680 680 681 682 683 684 685 686 687 688 689 691 692 694 696 698 699 701 703 705 706 707 708 710 711 713 714 715 717 718 719 720 721 723 724 726 727 729 730 732 733 735 736 738 739
728 727 725 724 723 722 722 721 720 720 719 718 716 715 714 712 711 709 707 705 703 701 700 700 700 699 696 692 690 689 690 691 690 687 684 681 679 679 679 678 677 677 677 677 678 679 681 682 682 683 684 685 687 689 691 692 694 696 697 699 701 702 703 704 706 707 709 710 711 712 714 715 716 717 719 721 722 724 725 727 728 730 732 733 735 736
729 728 727 725 724 723 722 721 720 720 719 718 717 715 714 712 711 710 708 706 704 702 701 700 700 699 699 696 694 692 693 692 690 687 684 681 678 677 677 677 675 674 674 674 675 676 677 678 679 680 680 682 683 685 687 689 690 692 694 695 696 698 699 700 702 703 705 706 707 709 710 711 712 714 716 718 719 720 722 724 725 727 728 730 731 733
729 728 727 726 724 723 721 721 720 720 719 718 717 716 714 712 711 710 708 706 704 702 701 700 700 699 698 697 695 695 694 692 689 686 683 680 678 676 676 675 674 672 672 671 672 673 674 675 676 677 677 678 680 681 683 685 686 688 690 691 692 693 695 696 698 699 701 702 703 705 706 707 709 711 712 714 716 717 719 720 722 724 725 727 728 729
729 727 726 726 724 723 721 720 720 720 719 718 717 716 714 712 711 709 708 706 704 702 701 700 700 699 698 697 696 695 694 691 688 685 682 679 677 675 675 674 672 671 670 670 670 671 672 672 673 673 674 675 676 678 679 681 682 684 685 687 688 689 691 692 694 695 697 698 700 701 702 703 705 707 709 710 712 714 715 717 719 720 722 723 725 726
728 727 726 725 724 722 721 720 719 719 719 718 717 715 714 712 711 709 707 706 704 702 701 700 699 699 698 697 695 694 692 690 687 685 682 679 676 674 674 672 671 670 669 669 669 669 669 670 670 670 671 672 673 674 676 677 678 680 681 682 684 685 687 688 690 692 693 694 695 697 698 700 701 703 705 707 709 710 712 714 715 717 718 720 721 723
728 727 725 724 723 722 721 720 719 718 717 717 716 715 714 712 711 709 707 705 704 702 700 699 698 697 696 695 693 692 690 689 687 685 683 679 676 674 673 672 671 669 668 668 667 667 667 667 668 668 668 669 670 671 673 674 675 676 678 679 680 682 683 684 686 687 689 690 692 693 695 696 698 700 701 703 705 707 708 710 712 713 715 717 718 720
727 726 725 724 723 722 721 720 718 717 716 715 714 713 712 712 710 709 707 705 703 701 699 697 696 695 693 692 691 689 688 688 688 687 684 680 677 675 674 673 672 670 668 667 666 666 666 665 665 665 666 667 669 670 671 672 673 674 675 677 678 679 680 682 683 684 686 687 688 689 691 693 694 696 698 700 701 703 705 706 708 710 712 713 715 716
727 726 725 724 723 722 720 719 718 717 716 714 713 712 711 710 709 707 706 704 702 700 698 696 694 693 691 690 688 687 686 688 689 688 686 682 679 676 675 674 673 671 669 667 666 665 665 665 664 665 665 666 667 668 670 671 672 673 674 675 676 678 679 680 681 682 683 684 685 686 688 689 691 693 694 696 697 699 701 703 705 706 708 710 712 713
727 726 725 723 722 721 720 718 717 716 715 714 713 711 710 709 708 706 704 703 701 699 697 695 693 691 690 689 687 686 686 687 688 689 688 685 681 677 675 674 673 671 669 667 666 665 664 664 664 664 665 665 666 667 668 670 671 672 673 675 676 677 677 678 679 680 680 681 682 684 685 686 688 689 691 692 694 696 698 700 701 703 705 707 709 710
726 725 724 722 721 720 718 717 716 715 714 713 712 711 710 708 707 705 703 702 701 699 697 695 693 691 689 688 687 687 687 687 687 688 687 686 682 677 674 673 672 671 669 667 665 665 664 663 663 663 664 665 666 667 668 669 670 671 672 673 674 675 675 676 677 677 678 679 680 681 682 683 685 686 688 689 691 693 695 697 698 701 703 705 707 708
725 724 723 721 720 719 718 716 715 714 713 712 711 710 709 708 706 705 703 702 700 699 697 695 693 691 689 688 687 687 687 687 686 685 685 683 680 676 673 672 671 670 668 667 665 663 663 662 661 662 662 663 665 666 667 668 669 670 671 672 672 673 674 674 675 675 676 677 677 678 680 681 682 683 685 686 688 690 692 694 696 698 701 703 704 705
724 723 722 721 720 718 717 716 715 713 712 711 710 710 708 707 706 705 703 702 700 699 697 696 694 692 690 689 687 687 686 686 685 684 683 682 678 675 673 672 671 670 669 666 664 662 661 660 660 660 661 662 663 664 665 667 667 668 669 670 670 671 672 672 673 673 674 674 675 676 677 678 679 681 682 684 685 687 689 691 694 696 699 700 702 703
723 722 721 720 719 718 717 715 714 713 712 711 710 709 708 707 706 705 703 702 701 699 697 696 695 693 691 690 688 686 686 685 685 685 684 682 678 676 674 673 672 672 670 668 665 663 661 659 659 659 660 661 662 663 664 665 666 667 667 668 669 669 670 671 671 672 672 672 673 674 675 676 677 678 680 681 683 685 687 689 692 694 696 697 699 700
722 721 720 719 718 717 716 715 714 713 711 710 710 708 707 707 706 705 703 702 701 700 698 696 695 693 692 691 689 687 685 685 685 685 684 683 680 678 676 675 674 673 672 671 668 665 662 660 659 659 660 661 662 663 664 664 665 666 666 667 667 668 668 669 669 670 670 670 671 672 672 673 675 676 677 679 680 682 684 687 689 692 693 695 696 697
722 721 720 719 718 717 716 715 714 712 711 710 709 708 707 706 705 704 703 702 701 700 699 697 695 694 693 692 690 688 686 685 684 684 684 684 682 679 677 676 674 673 672 671 670 668 665 662 660 660 660 661 662 663 663 664 665 665 666 666 667 667 667 668 668 668 668 668 669 670 670 671 672 674 675 676 678 680 682 684 686 689 690 692 693 695
721 720 719 718 717 716 715 714 713 712 711 710 709 708 707 706 705 704 703 702 701 700 699 698 696 694 693 692 690 688 687 685 685 684 685 684 683 681 678 677 675 673 671 670 669 668 666 664 662 661 661 661 662 662 663 664 664 665 665 666 666 666 666 666 666 666 666 667 667 668 668 669 670 672 673 674 676 677 679 681 683 685 687 689 690 692
721 720 719 718 717 716 715 714 713 712 711 710 709 707 706 705 704 703 702 701 701 700 699 698 696 695 693 691 690 688 686 685 685 685 685 685 683 681 679 677 675 673 671 669 667 666 665 664 663 662 661 661 661 662 662 663 663 664 665 665 665 666 666 665 665 665 665 665 666 666 667 668 669 670 671 672 674 675 677 679 680 682 684 685 687 689
720 719 718 717 716 715 714 713 712 711 710 709 708 707 706 705 703 702 701 700 700 699 698 697 696 695 694 692 690 688 686 685 684 684 684 684 683 681 679 677 676 674 672 670 667 665 664 662 662 662 662 661 661 661 661 662 662 663 664 664 664 665 665 664 664 664 664 664 664 665 665 666 667 668 669 670 671 673 674 676 678 680 681 683 684 686
720 719 718 717 715 714 713 712 711 710 709 708 707 707 705 704 703 702 700 699 698 698 697 696 695 694 693 692 690 688 686 684 684 683 683 682 682 681 679 677 676 675 673 671 668 666 664 662 661 661 662 661 661 660 660 661 661 662 662 663 663 663 663 663 663 663 663 663 663 663 664 664 665 665 666 667 669 670 672 673 675 677 679 681 682 683
720 719 718 717 715 714 713 712 711 710 709 708 707 706 705 703 702 701 700 698 697 696 695 694 693 692 692 691 689 687 686 684 683 682 682 681 681 680 679 677 675 675 674 672 670 667 665 663 661 660 660 660 660 660 659 660 660 661 661 661 662 662 662 662 662 662 662 662 662 662 662 663 663 664 664 665 667 669 670 672 673 675 677 679 680 682
720 719 718 717 716 715 714 712 711 710 709 707 706 705 704 702 701 700 699 698 696 695 694 693 691 690 689 688 687 686 685 683 682 681 680 680 679 679 678 676 675 674 673 672 671 668 666 664 661 660 659 658 658 658 658 659 659 659 659 660 660 661 661 661 661 661 661 661 661 661 661 662 662 662 663 664 665 667 669 670 672 674 676 678 679 681
721 720 718 717 716 715 714 713 712 711 709 708 706 705 703 702 701 699 698 697 696 694 693 692 690 689 687 686 685 684 683 682 681 680 679 678 678 677 677 675 674 672 672 671 670 668 666 664 662 660 658 657 656 656 657 657 657 658 658 658 659 659 659 660 660 660 660 660 660 660 660 660 661 661 662 662 663 665 666 668 670 672 675 677 679 681
721 720 719 718 717 716 715 714 713 711 710 708 706 705 703 701 700 699 697 696 695 694 692 691 689 687 686 685 684 682 682 681 680 679 678 677 677 676 675 675 673 672 670 669 668 667 665 663 661 660 658 657 656 655 655 655 656 656 657 657 657 657 657 658 659 659 659 659 659 659 659 659 660 660 660 661 661 662 663 665 667 669 672 674 676 679
722 720 719 718 717 717 715 714 713 711 710 708 706 705 703 701 700 698 696 695 694 692 691 689 687 686 684 683 682 681 681 680 679 678 677 677 676 675 674 674 672 671 670 668 667 665 664 662 661 659 658 657 656 655 655 654 654 655 656 656 656 655 656 657 657 658 658 658 658 658 658 658 658 659 659 659 660 660 661 662 665 667 669 671 672 674
722 721 720 719 717 716 715 714 712 711 710 708 707 705 703 702 700 698 696 695 693 692 690 689 687 685 683 682 681 680 679 679 678 677 676 676 675 674 673 672 672 671 669 667 665 664 662 661 660 659 657 657 656 655 654 653 653 654 654 654 655 655 655 655 655 656 657 657 657 657 657 657 657 658 658 658 659 659 660 661 663 665 667 669 670 672
723 722 720 719 717 716 715 713 712 710 709 708 706 705 704 702 701 699 697 695 694 692 690 689 687 686 684 682 680 678 678 677 677 676 675 675 674 673 672 671 670 670 669 667 665 663 661 660 659 658 657 656 656 655 654 653 653 653 653 653 654 655 654 654 654 655 656 656 657 657 657 656 656 657 657 658 658 659 660 661 662 663 664 666 668 670
723 722 720 719 717 716 714 713 711 710 709 707 706 705 703 702 701 700 698 696 694 693 691 689 688 686 684 682 680 679 677 675 675 674 673 673 672 672 671 670 669 668 667 667 665 663 661 660 658 657 656 655 655 654 653 652 652 652 652 652 653 653 653 652 653 654 654 655 656 656 656 656 656 656 657 657 658 658 659 660 661 662 663 665 667 668
724 722 720 719 717 715 714 712 711 710 708 707 706 704 703 702 701 700 698 696 695 693 691 690 688 686 684 682 681 679 677 675 674 672 671 670 670 670 669 668 667 666 666 665 664 663 662 660 658 656 655 655 654 653 652 652 652 652 652 652 652 652 651 652 652 652 653 654 655 655 655 656 656 656 656 656 657 657 658 659 659 660 662 664 666 667
724 722 720 719 717 716 714 713 711 710 708 707 705 704 703 701 700 699 698 696 695 693 691 690 689 687 685 683 681 680 678 676 674 672 670 669 668 667 667 667 666 665 665 664 663 662 661 660 658 657 655 654 653 652 651 652 652 651 651 651 651 651 651 651 651 651 652 653 654 654 655 655 656 655 655 655 656 657 657 658 658 659 660 662 664 665
724 722 720 719 717 716 714 713 711 710 708 706 705 704 702 701 700 698 697 696 695 693 691 690 689 687 685 684 682 680 679 677 675 673 671 668 667 666 665 665 665 664 663 662 661 660 659 658 657 656 655 654 652 651 651 651 651 651 651 651 651 651 651 650 650 650 651 652 652 653 654 655 655 655 655 655 655 656 657 657 658 658 659 660 662 664
724 722 721 719 717 716 714 713 711 710 708 707 705 703 702 701 700 698 697 695 694 693 691 690 688 687 685 684 682 681 679 677 676 674 672 669 667 666 665 664 663 662 661 660 659 658 657 655 655 654 654 653 652 651 650 650 650 650 650 650 650 650 650 650 649 650 650 651 651 652 653 654 655 655 655 655 655 655 656 657 657 658 659 660 661 662
724 722 721 719 718 716 715 713 712 710 709 707 705 703 702 701 700 699 697 695 694 693 691 690 688 687 685 683 682 680 679 677 676 674 672 670 668 667 665 664 663 661 660 658 657 655 654 653 652 652 652 652 652 652 651 650 650 650 650 650 649 649 649 649 649 649 650 650 650 651 652 653 654 654 655 655 655 655 655 656 657 657 658 659 660 661
723 722 721 719 718 716 715 713 712 710 709 707 705 704 702 700 699 698 697 695 694 693 691 690 688 687 685 683 682 680 679 677 675 674 672 671 669 668 666 665 664 662 660 658 656 655 653 652 651 650 650 651 651 651 651 650 650 650 650 649 649 648 648 648 648 648 648 649 650 650 651 652 653 654 655 655 654 654 655 655 656 657 657 658 660 661
722 721 720 719 717 716 714 713 712 710 709 707 705 704 702 700 699 697 696 695 694 692 691 690 688 687 685 683 682 680 679 677 676 674 673 672 670 669 668 667 665 664 662 660 658 656 655 653 651 650 649 649 650 650 650 650 650 649 649 649 648 648 648 647 647 647 647 648 648 649 650 651 652 653 653 654 654 655 655 655 655 656 656 658 659 660
Wind_Speed
28 29 29 28 28 28 30 33 34 35 36 38 38 39 40 41 43 45 46 46 45 45 45 45 46 47 48 50 50 50 51 52 52 52 51 49 47 43 40 39 38 39 40 41 42 43 44 44 44 44 44 45 45 45 44 45 45 46 47 47 47 47 47 46 46 46 46 46 46 46 46 47 46 46 45 44 43 43 42 42 42 42 42 42 42 41
24 26 28 29 28 27 27 29 31 32 34 35 36 37 38 39 40 42 43 44 44 43 42 42 43 43 44 47 49 50 51 52 52 51 50 47 44 40 38 37 37 38 39 40 41 42 43 43 43 44 44 44 44 44 44 44 44 45 45 46 47 47 47 47 47 47 47 47 47 47 47 47 47 47 46 45 45 44 44 43 43 43 43 43 43 43
19 20 24 26 27 27 25 26 28 29 32 33 35 36 37 37 38 39 41 42 43 43 43 42 41 41 41 43 46 48 50 51 51 50 49 46 42 38 36 36 36 37 38 39 40 41 41 42 42 43 43 44 44 43 43 42 42 43 43 45 46 46 47 48 48 48 48 48 48 48 48 47 47 46 46 46 46 46 46 45 45 44 44 44 44 44
20 19 20 21 23 26 27 27 27 28 30 31 33 34 34 35 36 38 39 40 41 42 43 43 42 42 41 42 43 46 47 48 49 48 47 44 40 37 36 35 36 36 37 37 38 38 39 40 40 41 42 42 42 42 41 40 39 40 41 42 44 45 47 48 48 48 48 48 48 48 48 47 46 45 46 47 47 47 46 45 45 45 46 46 45 45
18 20 22 23 21 22 25 27 27 28 28 29 30 30 31 32 34 35 37 38 38 39 41 42 43 43 42 42 42 44 45 45 45 45 44 41 39 36 35 35 35 36 36 36 36 36 36 37 37 38 39 39 39 39 38 36 36 36 38 39 41 43 45 47 48 49 49 49 49 49 49 48 47 46 46 47 47 45 44 44 45 47 48 48 47 47
18 19 22 22 22 21 21 22 24 26 27 28 28 28 29 30 31 32 33 34 35 37 38 40 42 43 43 43 42 42 42 41 41 41 40 39 38 37 37 36 36 36 36 35 35 35 35 36 36 36 37 37 38 37 37 36 36 36 36 37 38 40 43 45 47 48 49 49 49 49 49 48 48 47 47 47 46 44 43 43 45 47 49 49 49 48
18 19 21 21 21 22 22 20 18 21 23 24 25 27 28 28 29 30 31 32 33 34 36 39 40 42 42 42 42 41 40 39 38 38 39 39 39 39 40 40 40 39 39 38 38 38 38 38 38 38 38 39 39 40 40 40 40 40 39 39 39 39 40 42 43 45 47 47 48 48 48 49 49 48 48 48 47 45 44 43 45 46 47 49 50 50
17 19 20 20 21 22 22 22 20 18 17 18 21 23 25 27 28 30 31 32 32 33 34 36 38 39 40 41 41 40 39 38 37 38 38 39 40 41 43 44 44 44 44 44 43 43 42 42 42 42 43 43 44 44 45 45 46 46 45 44 43 42 41 41 41 42 43 44 44 45 47 48 48 49 49 49 48 47 46 45 44 44 44 46 49 51
16 17 19 20 20 20 20 21 23 25 23 19 17 19 20 22 25 27 28 30 32 33 33 33 34 36 38 38 38 38 38 38 38 38 39 39 41 42 44 45 47 48 50 50 50 50 50 49 49 49 49 49 50 50 51 51 51 51 51 50 48 46 44 43 42 42 42 42 42 43 44 46 47 48 48 48 48 48 47 46 44 42 41 42 45 48
15 16 17 18 19 18 18 19 23 26 27 23 17 14 16 16 17 19 21 25 29 32 33 33 32 33 35 36 36 36 36 37 38 39 40 40 42 43 45 47 48 50 53 55 56 57 57 56 56 56 56 57 57 57 57 57 56 56 55 54 52 50 47 46 45 44 44 44 44 44 44 45 46 47 47 47 48 48 48 47 45 43 41 40 41 44
14 15 16 16 17 18 17 18 21 23 25 23 19 13 6 7 8 10 12 14 19 24 28 31 32 32 32 33 35 35 34 35 36 39 40 42 43 44 45 47 49 51 53 56 58 59 60 60 61 61 62 63 64 64 63 62 61 59 58 56 53 50 47 46 46 46 46 47 47 46 46 46 45 45 46 46 46 46 47 47 46 45 43 41 40 41
13 14 14 15 16 16 17 19 19 19 20 20 19 18 18 19 19 17 14 13 13 15 17 22 28 33 34 34 33 33 33 33 34 36 39 41 43 44 44 45 47 49 51 53 56 58 59 60 62 63 64 66 66 66 65 63 62 60 59 56 52 49 47 46 46 47 48 49 50 50 49 48 46 45 44 44 44 45 45 46 46 46 45 43 41 41
12 13 13 14 14 15 16 18 16 15 17 18 17 16 16 19 20 19 15 15 16 18 19 19 20 24 31 35 36 34 32 32 33 34 36 38 40 42 42 42 43 45 47 48 50 53 55 58 60 62 63 64 65 64 63 61 60 59 57 54 51 49 48 48 49 49 50 51 52 52 51 50 47 45 43 42 42 43 43 44 45 47 47 45 43 42
12 13 12 12 12 13 14 15 13 13 15 16 16 16 17 18 18 17 16 15 17 19 21 21 20 18 19 26 32 34 33 32 32 33 33 35 37 39 40 40 42 43 45 45 46 49 52 54 55 58 60 61 61 60 59 58 57 56 54 52 51 51 52 53 53 53 53 53 53 53 52 51 49 46 43 42 41 41 42 43 44 46 47 46 44 43
12 12 11 10 10 12 13 14 13 14 15 17 18 19 19 18 17 16 15 15 17 19 21 21 21 19 16 12 16 21 21 22 23 26 29 34 37 39 39 39 40 42 43 43 45 47 49 50 51 52 54 56 57 57 57 56 55 54 52 52 52 54 55 56 56 55 54 54 54 53 53 52 50 48 45 44 43 42 42 43 44 46 48 47 45 44
11 11 9 9 9 11 13 14 14 15 16 18 20 20 18 17 17 16 15 14 16 17 18 18 17 16 14 9 7 8 12 13 14 16 19 25 31 36 38 38 37 39 40 41 43 44 46 47 47 49 50 52 54 54 55 55 54 53 53 53 54 55 57 57 57 56 55 54 54 53 53 52 50 49 48 47 46 44 43 44 45 47 48 48 47 45
11 11 10 9 9 10 13 14 15 16 17 18 19 19 18 17 16 16 14 14 14 14 13 13 9 7 9 14 18 22 26 27 24 20 18 18 20 26 33 36 36 36 38 40 41 42 43 44 45 47 48 50 52 53 54 54 54 54 54 55 55 56 57 57 56 55 54 53 53 52 52 51 50 49 48 48 46 45 44 44 46 47 48 48 48 47
11 11 11 10 10 11 13 14 15 16 17 17 17 18 17 16 16 15 14 14 13 12 11 10 8 5 5 10 15 22 28 28 26 23 20 18 18 18 22 30 34 36 36 38 40 41 43 44 46 47 49 51 52 54 55 55 56 56 56 56 56 57 57 56 55 53 52 51 50 49 49 49 48 47 46 45 44 44 44 44 45 46 47 47 47 47
11 11 11 11 12 13 14 14 14 16 17 17 18 18 17 16 15 14 13 13 12 11 11 9 9 10 10 12 18 25 29 28 26 22 19 18 19 18 17 23 29 32 33 36 39 41 42 44 46 49 51 52 54 55 55 56 56 56 56 56 56 56 56 56 54 52 50 48 46 44 44 43 43 42 41 41 41 41 42 43 44 45 45 46 46 46
11 11 11 12 14 14 13 13 14 16 17 19 19 19 17 16 15 14 13 13 12 12 12 11 10 11 13 16 21 27 30 29 26 21 18 17 18 20 19 20 24 28 30 33 37 39 41 43 45 48 50 52 53 54 55 55 56 56 56 56 56 56 56 54 53 51 48 46 43 41 40 40 39 39 38 39 39 40 40 41 42 43 44 45 45 45
13 13 14 15 15 14 13 13 15 17 19 20 20 19 17 16 15 14 13 13 13 12 12 11 11 13 16 19 23 26 28 27 24 21 17 16 18 19 19 19 21 24 27 30 33 36 39 41 44 46 48 50 51 52 53 54 54 54 55 55 55 55 55 53 51 49 47 44 42 41 40 40 40 40 40 40 41 41 41 42 42 42 43 44 44 45
15 16 17 18 17 16 16 17 19 20 20 20 19 18 17 16 16 16 15 14 14 13 13 13 14 17 19 22 25 25 24 23 22 20 16 13 15 18 17 17 18 21 24 26 28 30 33 37 40 43 46 47 49 50 51 52 52 52 53 54 54 54 53 52 51 49 47 45 44 43 43 43 44 44 44 44 44 44 44 44 43 43 43 43 44 45
17 17 18 18 18 18 19 21 22 22 22 20 19 19 18 19 19 18 18 17 16 16 16 17 19 21 22 23 23 22 19 19 22 22 16 8 8 14 15 15 15 18 21 23 24 24 26 30 33 36 39 41 44 46 47 49 49 50 50 51 52 52 51 51 49 47 46 45 45 45 45 45 45 45 46 46 46 46 46 45 44 43 43 43 44 45
16 16 18 18 19 20 21 22 22 22 22 21 21 21 21 21 21 21 21 20 19 19 19 20 20 20 19 18 18 17 16 16 19 21 16 9 9 14 18 19 16 15 17 19 20 20 20 22 26 29 32 33 34 36 39 41 43 44 45 46 46 47 46 46 44 43 42 41 41 42 42 42 43 43 44 45 45 45 45 44 43 42 42 42 43 45
15 16 18 19 20 20 21 21 21 21 21 21 21 21 21 21 21 20 20 19 19 19 18 17 16 15 15 14 14 14 15 14 16 18 18 14 15 20 23 24 21 18 15 16 16 16 15 16 18 22 24 25 26 27 29 31 33 35 37 38 38 39 38 38 37 36 36 35 36 36 37 38 38 39 40 41 41 42 42 41 41 41 41 41 42 44
15 17 18 19 19 19 20 20 20 20 20 20 20 20 20 20 20 19 18 17 16 16 15 13 11 11 13 13 13 13 13 13 14 16 17 16 17 21 23 23 21 19 17 17 16 15 14 13 14 16 18 19 21 21 22 23 25 26 28 29 30 30 30 30 30 30 30 31 31 32 33 33 34 35 36 36 37 38 38 38 39 39 39 39 40 42
17 17 18 18 18 19 19 19 19 19 19 19 19 19 20 20 18 16 14 14 14 14 13 9 7 8 11 11 11 12 13 14 14 16 16 16 16 17 19 19 18 18 18 18 18 17 16 15 15 15 15 16 17 18 19 20 20 21 23 24 25 25 26 26 27 27 28 28 29 30 30 31 32 32 33 34 34 35 36 36 37 37 37 38 39 40
17 17 17 17 17 18 18 19 19 19 19 19 19 19 19 18 16 14 13 14 14 14 12 9 6 6 6 7 10 13 14 14 15 16 16 16 13 12 15 17 17 17 15 14 15 17 16 16 15 15 16 16 17 17 18 19 20 20 21 22 23 23 24 25 25 26 26 27 28 28 29 30 31 31 32 33 33 34 34 35 35 35 35 36 37 39
16 16 16 16 17 17 18 19 19 19 19 19 19 18 17 17 16 15 15 16 15 14 12 11 10 8 8 10 12 13 12 11 12 13 15 14 12 11 13 14 15 13 10 7 8 9 9 10 11 12 13 14 16 17 18 20 20 21 21 22 22 23 23 24 25 25 26 26 27 28 28 29 30 31 31 32 33 33 34 34 34 34 34 36 37 37
16 16 16 16 17 17 18 19 19 19 19 19 19 18 17 17 16 16 16 17 16 14 12 12 12 11 11 11 9 7 6 6 8 12 15 13 11 12 16 18 17 13 9 6 4 3 3 4 5 6 7 9 11 13 15 16 17 18 19 20 22 22 23 24 24 24 25 25 26 27 27 28 29 30 31 31 32 32 33 33 33 33 34 36 36 36
17 17 17 17 17 18 18 18 18 19 19 19 19 19 19 17 16 16 16 16 16 15 14 13 13 13 12 7 3 2 1 4 10 15 17 14 12 13 16 17 18 17 14 9 4 2 3 4 4 3 3 4 5 6 7 8 10 11 13 16 18 20 22 22 23 23 23 24 25 26 27 27 28 29 30 30 31 32 32 32 33 33 34 35 35 35
17 16 16 17 17 17 17 17 17 18 18 19 19 20 20 18 17 16 16 16 16 16 15 14 14 14 13 9 6 4 4 8 13 18 20 16 14 14 16 15 16 17 16 15 9 4 3 3 4 6 7 8 8 8 9 10 11 12 13 14 16 18 19 20 21 21 22 23 24 25 26 27 28 28 29 30 30 31 31 32 33 34 35 34 34 33
16 16 16 16 17 17 17 17 17 17 17 18 18 19 20 20 19 18 18 17 16 16 15 15 14 14 14 14 12 11 11 13 17 21 23 20 16 15 17 17 17 16 16 16 14 11 7 5 6 9 12 13 14 14 15 15 15 15 15 15 16 17 18 18 19 19 20 21 23 25 26 27 28 28 29 29 30 30 31 32 33 35 36 36 35 34
16 16 16 16 17 17 17 17 17 17 17 17 18 19 20 21 21 21 20 19 19 18 16 16 15 14 14 14 14 15 16 17 20 22 24 21 17 15 17 17 17 17 16 13 12 11 10 10 10 11 13 15 16 17 18 18 18 17 17 16 16 17 18 18 17 17 18 19 21 24 26 27 28 29 29 29 30 30 31 32 34 36 37 38 37 35
16 16 16 16 17 17 17 17 17 17 17 17 18 18 19 21 22 22 22 21 21 19 18 18 17 16 15 14 14 15 16 19 22 23 23 21 18 16 16 15 15 15 16 14 11 8 7 9 11 11 11 13 15 16 17 17 17 17 16 16 16 16 17 17 17 17 17 18 20 22 24 26 28 29 29 29 30 31 31 33 34 36 38 39 39 38
16 16 16 16 16 16 17 17 17 17 17 17 18 19 20 21 22 22 22 22 21 21 20 20 19 19 18 17 17 17 18 21 22 22 21 20 19 17 15 14 14 15 15 15 14 11 8 8 9 11 10 9 10 13 15 15 15 14 14 14 15 15 16 17 17 17 17 18 19 21 22 25 27 29 30 30 30 31 31 33 34 37 39 40 41 41
15 15 16 16 16 16 17 17 17 18 18 18 19 20 21 21 22 22 21 21 21 21 21 21 21 20 20 19 20 20 21 22 21 20 19 19 19 19 17 16 16 16 15 15 15 15 13 9 8 8 9 9 9 10 12 13 14 14 15 15 15 15 16 17 17 17 18 19 20 20 21 23 25 27 29 30 30 30 31 32 34 37 40 42 42 42
15 15 16 16 16 17 17 18 18 18 19 20 20 21 22 22 22 21 21 21 21 22 22 22 23 22 22 21 21 21 21 21 20 19 18 18 19 20 20 19 19 19 17 16 17 17 16 9 5 4 4 8 11 13 13 13 13 14 16 17 17 16 16 17 17 18 19 19 20 21 21 22 24 25 27 28 29 30 31 33 35 37 40 42 43 43
16 16 16 16 16 17 17 18 18 19 20 20 21 21 22 22 22 21 20 20 20 21 22 23 23 23 23 22 21 21 20 19 19 19 19 19 20 20 21 20 20 20 19 19 19 19 18 13 9 4 2 5 9 12 14 14 14 14 15 16 17 17 17 17 17 18 19 20 20 21 21 22 23 24 25 27 28 30 31 32 35 38 40 41 41 41
16 16 16 17 17 17 17 18 18 19 20 21 21 21 21 21 21 21 20 20 20 20 21 22 22 22 22 22 21 20 19 18 18 18 19 19 20 20 20 20 20 20 20 20 20 19 18 17 16 14 12 9 8 9 10 13 14 15 14 13 13 15 16 17 17 17 19 20 21 21 21 22 23 24 25 26 28 30 31 32 34 37 40 39 38 37
17 17 17 18 18 18 18 19 19 19 19 19 20 20 20 20 20 20 20 20 20 20 21 21 21 22 21 20 19 18 18 17 17 17 17 18 19 20 20 20 20 20 20 20 20 20 19 18 17 17 16 15 13 12 12 13 14 15 14 13 13 14 16 17 17 17 18 19 21 22 22 22 23 24 25 27 29 31 32 33 34 37 40 40 39 38
18 18 18 19 19 20 20 20 20 20 19 19 19 18 18 18 19 20 20 20 20 20 20 20 20 21 21 20 19 18 17 17 17 17 17 17 17 18 20 20 20 20 20 20 20 20 19 19 18 17 17 16 14 13 12 13 14 15 15 15 15 15 15 16 16 16 16 19 20 21 22 22 23 25 26 27 28 30 32 33 35 37 39 39 39 40
19 19 20 20 20 20 20 20 20 19 19 19 18 18 18 18 19 19 20 19 20 20 20 19 19 19 19 20 20 20 19 18 18 18 17 17 17 18 19 20 20 20 20 19 18 19 19 19 19 18 18 17 15 13 12 12 13 14 16 17 16 13 10 12 14 15 16 18 19 20 21 22 24 25 26 26 28 29 31 33 36 38 39 38 38 39
19 20 20 21 21 21 20 20 20 20 19 18 18 18 18 19 19 19 19 19 19 20 20 19 19 18 17 18 19 20 21 21 21 21 20 19 19 19 19 20 20 20 19 18 17 17 18 18 18 18 18 17 16 15 14 13 12 13 15 17 17 16 12 12 13 15 16 17 19 20 21 22 23 24 25 26 27 28 30 32 34 37 39 39 39 39
20 20 21 21 21 21 21 21 21 21 20 20 19 19 19 19 19 19 18 18 19 19 19 19 18 17 16 16 17 18 20 21 23 25 25 24 22 21 21 21 21 20 19 18 18 17 17 16 17 17 17 16 15 15 14 14 13 13 14 16 18 19 20 18 17 16 16 17 18 20 20 21 22 23 24 24 25 26 28 30 32 35 38 38 37 38
20 20 21 21 21 21 21 21 21 21 21 21 21 20 20 21 20 19 19 19 19 19 19 18 17 15 14 15 16 17 18 19 22 24 26 27 26 25 24 23 22 22 21 20 19 18 17 17 17 18 18 17 16 15 15 15 14 14 14 15 16 18 20 20 19 18 17 17 19 20 20 20 20 20 21 22 24 25 27 29 31 34 36 37 36 37
20 20 21 21 21 21 21 22 22 21 21 21 21 21 21 21 21 21 20 20 19 19 19 18 16 15 15 16 16 17 17 18 20 22 24 26 27 28 27 26 25 24 23 21 20 19 18 18 17 16 16 15 14 13 14 14 15 15 15 15 15 16 17 19 19 20 19 19 19 20 20 19 19 18 19 20 22 24 25 28 30 33 35 36 36 36
20 20 20 20 20 20 21 21 21 21 21 21 22 22 22 21 21 21 20 20 20 19 19 18 17 16 16 16 17 17 17 17 18 20 22 24 26 27 27 27 26 25 24 22 21 19 18 17 16 14 13 13 12 12 13 13 14 14 15 15 16 16 17 18 20 21 20 20 21 21 22 21 19 18 17 18 19 21 23 25 28 32 34 35 35 35
19 19 19 19 20 20 20 20 21 21 21 21 22 22 22 22 21 21 20 20 20 19 18 18 17 17 17 17 17 18 17 17 17 18 20 22 23 24 24 25 25 25 23 22 21 20 19 18 16 14 12 11 12 13 14 15 14 14 14 15 16 17 17 18 20 21 21 21 22 23 24 23 22 20 18 17 17 18 21 23 27 30 33 34 35 35
19 19 19 19 19 19 20 20 20 20 20 21 21 21 22 22 22 21 20 20 19 19 18 18 18 17 17 17 18 18 17 17 17 18 19 20 21 21 21 21 22 23 22 21 21 20 19 18 16 15 13 12 11 12 13 15 15 15 15 14 15 16 16 17 19 21 22 22 23 24 25 25 24 22 20 18 17 17 18 21 24 28 32 34 35 35
19 19 19 19 19 19 19 20 19 19 20 20 21 21 21 22 22 21 21 20 20 19 19 19 18 17 17 18 18 18 17 17 17 17 19 19 20 20 19 20 20 20 19 18 17 16 14 12 12 13 15 14 13 12 13 14 14 14 14 14 14 15 15 16 18 20 21 23 24 24 25 25 24 22 20 18 16 16 16 18 21 25 31 33 34 34
Wind_Direction
256 256 256 255 251 244 240 239 236 234 233 234 234 234 234 234 235 236 237 237 237 236 236 236 237 238 239 239 240 241 242 243 242 242 241 240 238 237 236 237 237 238 239 240 241 242 243 243 243 243 242 241 240 239 238 238 238 238 238 238 238 237 236 235 234 234 233 234 234 234 235 236 236 235 234 234 233 231 230 228 226 225 224 223 223 222
267 261 257 255 252 247 242 241 238 235 234 235 235 235 234 233 234 235 236 236 236 235 235 235 236 236 237 238 239 240 241 241 241 240 239 238 236 235 234 234 235 236 237 239 240 241 242 242 242 242 241 241 240 239 238 238 238 238 239 239 239 239 239 237 236 235 235 235 235 235 235 234 234 234 235 235 235 233 231 229 228 226 224 224 223 222
305 286 270 260 253 249 245 243 241 239 238 238 238 237 235 234 233 234 235 235 236 236 235 235 235 235 235 236 238 239 240 240 240 239 238 236 234 232 230 231 232 233 235 236 238 239 241 241 241 241 241 241 240 239 238 238 238 238 239 240 241 241 241 240 239 238 237 236 236 237 236 233 232 232 233 235 235 234 231 230 228 227 226 225 224 223
333 322 307 288 270 257 250 246 244 242 241 241 240 239 237 234 234 235 236 236 236 236 237 237 236 235 235 235 237 239 240 240 240 238 236 234 232 230 229 229 230 231 232 233 235 237 238 239 240 240 240 241 240 240 239 239 238 239 240 241 242 243 243 243 242 240 239 238 238 237 237 235 232 231 231 233 234 232 229 227 226 226 226 226 225 224
338 336 332 324 306 282 263 252 246 243 241 240 239 238 236 235 235 235 236 237 237 237 238 238 237 235 235 235 236 238 240 240 239 238 236 234 233 231 231 231 231 231 232 233 234 235 237 238 239 240 241 242 242 242 243 243 242 242 242 242 242 243 243 244 243 243 241 240 239 238 238 237 234 232 232 232 231 229 226 224 224 224 225 225 225 224
333 334 335 334 328 316 298 272 254 244 240 238 237 236 235 234 234 235 235 236 237 238 239 239 238 236 234 234 235 237 238 239 239 238 237 236 236 235 234 234 234 234 234 235 236 237 239 240 242 243 244 246 247 248 248 250 250 250 248 246 245 244 243 243 243 243 243 242 241 240 239 238 237 236 234 234 231 229 226 224 223 223 224 224 225 224
330 332 335 336 336 333 328 313 286 260 245 238 235 234 233 234 234 234 235 236 237 238 240 240 239 237 235 234 233 234 234 236 237 239 240 240 240 240 239 239 238 238 238 238 239 240 241 242 244 246 247 249 251 252 252 253 254 254 254 253 251 248 246 244 244 243 243 243 242 241 240 239 239 238 238 236 233 231 228 225 224 223 223 223 224 223
331 334 337 338 338 338 338 338 331 313 283 258 242 234 233 233 234 236 237 238 238 239 239 239 239 238 236 235 234 233 233 233 235 238 240 242 243 243 243 243 242 241 241 241 241 241 242 243 244 246 248 249 251 252 253 253 254 254 255 255 254 252 250 248 246 245 245 245 245 244 243 242 241 240 239 238 236 234 231 228 225 224 223 223 223 222
333 335 336 338 337 336 336 338 340 340 332 307 273 246 234 233 234 236 238 239 239 238 238 238 239 239 239 238 237 236 236 236 237 238 239 241 242 243 244 244 244 243 243 242 242 242 242 243 244 245 247 248 249 250 252 253 254 254 255 255 255 254 252 251 250 249 249 249 249 249 247 245 243 242 240 240 239 237 235 232 229 227 226 224 222 221
337 336 336 336 336 335 332 331 333 338 342 336 315 276 245 238 240 242 241 241 240 239 238 238 239 240 242 242 241 241 241 242 242 242 242 242 242 243 243 244 244 244 244 243 243 243 243 243 244 245 247 248 248 249 250 251 252 253 254 254 254 253 252 251 251 251 251 251 252 252 252 250 247 244 241 240 239 239 238 236 234 231 229 227 224 221
338 339 337 335 335 334 332 327 327 334 345 350 352 352 339 324 313 300 281 267 256 249 244 241 241 241 243 243 244 243 244 245 245 246 245 244 244 243 243 243 243 244 244 244 244 244 244 244 245 246 247 248 248 248 248 248 249 249 251 252 252 251 251 251 252 252 253 253 254 254 253 252 249 246 242 240 239 239 239 239 238 235 232 229 226 224
335 337 336 335 335 334 331 328 329 339 354 1 6 12 15 13 6 356 344 335 322 303 280 260 249 244 242 242 242 242 242 243 244 245 245 244 243 242 241 241 242 242 243 243 244 244 244 245 245 245 246 246 247 247 247 246 246 246 247 248 249 249 250 251 253 254 254 254 254 254 253 252 249 247 244 241 239 238 239 240 240 239 235 231 227 225
333 333 333 334 334 333 331 328 334 351 8 9 7 3 359 358 358 357 352 350 348 343 332 315 288 263 248 242 240 240 240 240 240 241 241 241 241 240 239 239 239 240 241 241 242 243 243 244 244 244 244 244 245 245 245 244 243 243 243 244 246 248 250 252 253 254 255 255 254 253 252 251 249 247 246 244 242 240 239 239 240 240 238 234 229 226
334 335 334 334 335 334 333 334 344 2 9 6 1 354 348 346 348 349 348 346 345 344 342 336 326 307 277 251 241 238 238 238 238 238 238 238 238 237 236 236 237 238 239 239 240 241 242 242 242 242 242 242 242 242 241 240 240 240 241 242 245 247 249 251 252 253 253 253 252 251 250 248 247 246 246 246 245 243 241 240 240 240 240 237 232 227
337 337 336 334 336 338 341 348 359 4 359 355 351 348 345 344 346 348 347 344 342 341 341 339 336 332 322 285 249 238 239 243 244 243 240 238 237 237 235 234 235 236 237 237 238 239 240 240 239 239 239 238 238 237 237 236 236 237 239 242 245 247 249 250 250 251 251 251 250 248 247 245 244 244 245 246 247 245 242 240 239 239 239 239 236 230
338 338 335 334 338 344 348 354 357 356 349 346 345 344 343 341 341 343 344 342 341 342 343 342 338 336 337 353 16 16 360 345 321 292 268 252 242 237 234 232 232 233 234 234 235 236 237 236 236 235 235 234 234 233 233 233 233 235 238 242 245 247 248 249 250 250 250 249 247 245 243 242 241 242 243 245 245 245 242 239 237 237 237 238 237 233
336 336 335 336 341 345 346 346 345 343 342 340 340 339 338 335 334 335 337 339 340 342 343 342 337 328 325 328 336 346 352 351 344 332 314 293 268 247 235 229 228 229 231 232 232 233 233 232 232 232 231 231 231 231 231 232 233 236 239 242 245 247 248 248 249 249 248 246 243 241 239 239 239 239 241 243 243 242 240 238 236 235 235 236 236 235
334 335 335 337 338 339 338 336 335 336 337 336 334 332 330 327 326 327 330 335 337 338 338 334 327 316 314 313 320 326 330 335 332 323 315 307 296 275 247 231 226 226 228 229 230 231 230 230 230 230 230 231 231 231 232 233 235 237 240 242 244 246 246 247 247 247 245 241 238 236 235 235 236 237 239 241 242 241 239 237 235 234 234 234 234 234
330 333 334 334 332 330 329 328 331 332 333 331 330 327 324 322 322 323 325 329 331 330 328 323 314 308 305 305 310 316 320 324 321 313 305 301 300 296 273 242 229 225 226 228 229 230 230 230 231 231 232 232 232 233 234 235 237 239 241 242 243 244 245 245 245 243 240 236 233 232 232 233 234 236 239 241 242 241 239 236 234 233 233 233 234 234
322 323 325 326 325 322 320 322 326 329 328 327 326 323 319 319 319 320 320 322 323 321 319 312 306 303 304 304 306 310 315 318 314 306 300 296 296 297 291 261 238 229 228 229 230 231 231 232 232 233 234 234 234 235 236 237 239 240 241 242 242 243 243 243 241 239 235 232 231 232 233 235 237 239 242 244 245 244 241 238 236 234 233 233 233 233
315 314 316 319 319 316 314 317 321 324 324 324 323 320 316 317 317 316 316 317 316 314 313 307 302 302 303 302 301 305 312 314 308 300 299 297 296 296 295 277 254 238 233 232 232 232 232 233 234 234 235 236 236 237 238 239 240 241 241 242 242 241 241 240 237 234 232 233 234 237 240 241 243 245 246 247 248 247 245 243 239 237 235 234 233 233
311 311 314 317 317 315 314 315 317 320 321 322 319 316 314 315 314 313 313 313 312 310 308 304 301 299 297 294 294 301 312 313 305 298 297 296 295 297 298 288 265 247 238 236 234 232 231 231 232 234 235 236 237 238 239 240 241 241 241 241 240 239 238 235 233 232 232 235 239 242 245 247 247 248 248 248 247 247 246 244 242 239 236 234 233 232
312 313 318 321 321 319 318 318 318 319 320 318 315 312 311 310 308 307 307 307 307 306 305 302 299 296 294 291 293 301 311 315 311 305 296 287 292 303 312 307 280 254 243 241 239 236 232 228 227 229 231 234 236 237 238 239 239 239 238 237 236 235 233 231 230 231 233 237 241 244 246 247 247 247 246 246 245 244 243 242 241 239 236 234 233 232
319 322 324 324 323 321 320 319 319 319 319 317 315 313 312 310 308 305 304 304 303 303 302 301 299 296 293 293 296 302 309 316 317 315 309 299 302 316 324 325 311 280 257 249 246 244 239 232 228 226 226 227 229 231 233 234 235 234 233 232 231 230 229 228 229 230 233 236 239 241 242 243 243 242 242 241 241 240 239 239 238 237 235 234 233 232
328 328 325 322 320 319 319 319 319 320 320 318 317 315 314 312 310 307 306 303 301 300 299 297 295 294 297 302 304 305 308 312 314 317 321 316 313 315 318 321 318 306 282 269 259 252 247 239 233 229 226 223 222 223 224 226 227 227 227 227 226 226 227 228 229 231 233 235 237 238 238 238 238 237 237 237 237 237 236 236 236 235 234 234 232 231
329 326 322 319 318 318 319 320 321 322 322 321 320 318 316 314 312 310 307 305 304 303 300 296 293 295 301 305 305 304 306 307 306 307 312 309 305 304 305 308 310 307 295 288 278 265 255 244 235 231 228 224 221 219 217 218 220 221 223 224 226 227 229 231 233 235 236 236 236 236 236 236 235 235 235 235 235 235 235 235 234 234 234 233 232 232
326 323 320 320 320 321 322 323 324 324 325 324 324 322 321 320 317 313 309 310 312 311 306 301 299 301 304 304 302 301 302 303 300 296 294 289 288 290 292 294 297 297 294 290 285 277 266 254 243 236 232 230 228 226 225 224 224 224 226 228 231 233 235 237 238 238 238 237 237 236 236 236 235 235 235 234 234 234 234 234 234 233 233 233 232 232
325 323 322 322 323 324 325 326 328 328 329 329 329 329 329 327 322 314 310 313 315 312 308 306 306 306 307 306 304 302 300 297 296 296 290 277 271 274 282 285 287 287 286 284 283 281 274 264 255 250 246 245 244 244 243 242 241 241 240 240 241 242 242 242 241 240 239 238 237 237 236 236 235 235 234 234 234 233 233 233 232 232 232 231 231 230
327 326 325 325 326 327 328 330 332 334 334 334 335 336 336 333 326 317 312 313 312 308 305 305 306 306 307 309 307 304 299 294 302 311 307 287 275 281 295 300 297 291 285 282 282 281 276 266 261 258 257 257 258 257 257 256 255 255 254 253 252 250 248 246 244 241 239 238 237 236 236 235 235 235 234 234 233 232 232 231 230 230 230 229 228 228
330 329 329 330 330 331 331 333 336 337 337 338 339 341 341 339 333 326 322 320 316 311 306 305 305 307 309 311 309 304 298 305 335 343 333 318 305 306 315 318 318 316 312 310 307 300 292 288 276 265 263 264 264 264 264 264 264 264 263 262 259 256 253 249 246 242 239 237 235 235 234 234 234 234 234 233 232 231 230 228 227 226 226 226 225 223
330 330 330 332 333 334 335 335 336 337 338 340 341 342 342 341 338 334 332 331 327 322 316 312 310 310 311 312 308 294 297 335 350 354 351 338 319 307 309 309 310 310 310 312 321 345 319 326 347 0 339 317 301 293 289 291 292 290 285 279 271 264 258 253 249 244 240 236 234 233 233 233 233 233 232 232 231 230 227 225 223 222 222 221 219 216
331 330 329 331 333 335 336 336 336 336 337 338 339 339 339 338 337 336 335 334 332 330 325 321 318 317 315 312 306 297 300 324 333 341 347 342 327 314 310 304 300 298 296 296 295 296 306 318 345 352 342 335 331 328 323 320 319 318 313 304 292 281 270 262 255 249 243 238 235 233 232 232 231 231 231 230 229 227 225 222 220 219 218 215 212 209
331 331 330 331 333 334 335 336 336 336 336 336 335 335 335 335 335 334 333 332 331 329 326 323 322 321 319 314 309 303 302 311 319 325 332 334 330 323 321 317 311 304 295 286 279 273 270 274 294 305 307 308 308 307 304 304 304 305 306 305 300 293 285 275 265 257 250 243 238 235 233 232 231 230 230 229 227 225 222 220 218 216 214 211 206 202
332 332 332 333 333 334 334 335 335 335 334 333 332 331 331 331 331 332 331 331 329 327 323 320 318 317 317 315 310 306 304 307 312 317 322 325 323 318 317 317 316 312 306 290 273 262 259 263 273 284 290 292 293 294 292 292 292 292 293 293 293 293 290 284 276 266 258 250 244 239 235 232 230 229 228 226 225 223 221 219 217 216 213 208 203 197
334 334 335 335 335 335 335 335 334 334 332 331 330 329 328 328 328 329 329 329 328 326 322 319 315 311 309 307 305 304 303 306 310 314 317 317 314 311 309 308 312 314 312 303 288 269 256 256 259 265 276 282 284 285 284 283 284 285 284 284 284 287 289 288 282 275 267 259 252 245 239 233 229 227 225 224 222 221 219 218 217 215 212 208 202 195
335 336 337 337 337 337 337 336 335 334 332 330 328 327 326 326 326 326 327 327 326 324 322 319 316 311 306 301 298 297 298 303 308 312 313 311 307 303 299 298 303 309 310 307 301 293 279 265 257 255 258 268 276 279 278 277 276 275 275 275 277 282 287 288 285 278 271 264 257 251 244 237 230 226 223 222 220 219 218 218 216 214 210 206 202 197
337 337 338 339 340 340 339 338 337 335 333 331 329 327 326 325 325 325 325 325 324 323 321 319 316 313 309 305 300 298 299 303 307 310 311 309 305 297 290 289 293 297 299 302 302 300 293 282 266 255 248 248 256 267 272 272 270 268 267 269 273 278 283 285 283 277 270 263 258 254 249 241 233 227 223 221 219 218 218 218 216 213 208 204 200 197
339 338 339 341 342 342 341 339 338 336 334 331 329 327 326 326 326 326 325 325 324 322 320 318 315 314 312 311 309 307 307 308 310 312 313 312 306 298 289 286 288 290 290 292 295 296 293 288 274 258 245 244 247 252 257 260 261 261 264 268 271 274 278 280 279 275 268 262 259 255 251 244 235 228 223 219 217 216 215 214 212 208 204 200 198 196
339 339 339 341 342 342 341 338 336 334 332 330 328 327 327 328 328 328 327 325 323 321 319 317 315 314 314 315 316 316 315 315 315 317 317 316 312 304 294 288 286 287 289 290 291 291 290 286 280 272 262 251 249 248 248 250 251 255 260 265 269 271 273 277 276 272 266 261 256 252 247 241 233 225 219 215 211 208 206 204 203 201 197 194 192 192
338 337 338 339 339 339 337 334 331 330 328 327 327 328 329 330 330 330 329 326 323 321 320 318 317 316 316 316 317 317 317 318 319 319 320 320 319 315 306 296 290 290 292 292 291 289 287 285 282 278 274 269 262 255 248 245 245 248 253 258 262 266 270 275 275 271 266 259 252 246 241 236 229 221 214 209 205 202 199 197 195 194 192 189 186 185
336 336 335 335 335 333 331 329 328 327 326 327 328 329 331 332 332 332 331 328 326 324 323 322 321 320 318 317 316 316 317 318 319 320 320 321 322 321 318 310 303 299 297 295 293 291 288 285 283 280 277 273 270 266 259 248 244 243 242 243 251 261 270 274 273 270 264 256 250 243 237 230 224 217 212 207 203 201 198 194 191 189 189 187 185 182
335 334 333 332 331 330 328 327 327 328 328 329 329 330 331 333 333 333 331 330 328 327 327 326 324 323 321 319 319 318 318 319 320 320 320 320 321 321 320 318 315 310 306 301 297 295 291 287 283 279 276 274 273 271 265 257 249 242 238 239 246 258 267 268 267 265 258 251 246 240 233 226 219 214 210 206 203 200 197 193 190 188 187 186 186 184
333 332 330 329 328 328 327 328 328 329 330 330 329 329 330 332 332 332 330 329 328 328 328 327 325 323 320 319 319 320 320 320 321 322 321 321 320 319 318 318 318 317 314 309 304 301 298 292 284 276 273 271 271 272 272 267 255 244 238 238 239 242 249 254 258 258 254 248 242 236 229 222 217 212 209 205 202 199 196 192 190 189 188 186 186 186
331 330 329 329 328 329 329 330 330 330 330 329 328 328 329 330 331 331 329 328 327 328 329 328 325 322 319 318 319 320 321 321 322 323 324 325 325 323 321 320 320 320 319 313 308 307 305 300 291 282 274 269 267 269 273 273 265 251 241 236 232 229 231 243 250 251 249 245 240 234 228 221 215 210 206 203 200 197 194 191 189 188 188 188 187 186
330 330 330 330 331 331 331 331 331 330 330 329 328 328 328 330 330 330 328 328 328 328 328 327 325 323 319 318 319 320 321 321 322 324 326 328 330 330 329 328 327 326 323 316 309 305 304 302 301 298 292 282 272 268 270 273 272 264 251 240 234 232 235 241 245 243 239 239 237 234 228 221 213 206 201 199 197 195 192 190 188 187 188 188 187 187
332 331 331 331 331 331 330 330 330 330 329 329 328 328 329 330 330 330 329 329 328 327 326 327 325 322 318 318 319 320 320 320 321 322 324 327 330 332 333 332 332 330 326 319 313 306 300 298 299 302 302 296 285 273 269 269 271 268 259 246 237 234 234 236 237 236 234 234 234 232 229 222 213 204 198 196 194 193 192 190 189 188 187 187 187 187
331 330 329 329 329 329 329 330 330 330 329 328 328 328 328 329 330 330 330 330 329 328 328 328 326 323 320 319 319 319 318 317 318 318 319 322 325 328 330 331 332 332 328 323 317 311 304 300 299 299 298 296 290 282 274 268 266 264 260 251 241 235 233 233 233 232 232 231 229 227 225 220 213 206 200 195 193 192 192 192 191 190 188 187 187 187
329 327 327 327 327 327 328 328 329 328 327 326 326 327 327 328 329 329 329 329 329 329 329 329 328 325 323 321 319 317 315 313 313 314 314 317 320 323 326 329 332 332 331 327 323 318 313 310 307 302 295 290 289 289 287 280 271 264 259 252 242 235 234 234 233 231 229 228 226 223 220 216 211 207 202 196 193 192 192 192 192 191 190 189 187 187
326 325 325 324 324 324 324 325 326 326 325 325 325 325 326 326 327 327 326 326 326 327 326 326 325 324 322 321 320 318 316 314 312 312 313 315 317 321 325 330 333 334 332 330 329 327 325 321 316 311 304 293 286 285 289 289 286 278 268 256 244 237 234 233 232 230 227 224 223 221 218 214 211 207 202 198 194 192 191 192 193 193 192 191 189 189
324 324 323 322 321 321 321 321 322 322 322 322 323 323 323 324 325 325 324 324 324 324 323 322 321 320 319 319 320 320 319 318 317 317 317 318 320 324 329 334 337 337 334 333 332 332 330 326 321 315 311 305 295 286 282 283 286 286 281 269 255 244 237 234 231 228 225 221 219 218 215 213 211 208 204 202 198 194 191 192 193 194 194 192 191 191
322 323 322 321 319 318 318 318 318 318 318 319 319 320 320 321 322 322 323 323 323 322 320 319 318 317 315 316 317 318 319 319 320 321 321 323 326 330 334 337 337 336 334 332 331 331 330 327 321 313 307 305 304 300 288 279 278 280 280 275 268 258 249 241 234 228 222 219 217 215 212 210 207 206 205 204 201 197 194 193 194 195 195 194 193 192